Probability
0 0 0 0 0 0 0 0 0 0 0 0 0 0 0 0 0 0 0 0 0 1 1 1 3 4 2 0 0 1 2 1 0 0 0 0 1 0 0 0 0 0 0
0 0 0 0 0 0 0 0 0 0 0 0 0 0 0 0 0 0 0 0 0 1 2 3 5 5 4 2 1 1 2 3 1 1 0 0 1 0 0 0 0 0 0
0 0 0 0 0 0 0 0 0 0 0 0 0 0 0 0 0 0 0 0 0 1 2 4 6 7 6 5 4 3 4 4 2 1 0 0 0 0 0 0 0 0 0
0 0 0 0 0 0 0 0 0 0 0 0 0 0 0 0 0 0 0 0 0 0 1 4 7 8 8 8 7 6 6 4 2 1 0 0 0 0 0 0 0 0 0
0 0 0 0 0 0 0 0 0 0 0 0 0 0 0 0 0 0 0 0 0 0 0 2 6 9 10 10 9 9 8 6 3 1 0 0 0 0 0 0 0 0 0
0 0 0 0 0 0 0 0 0 0 0 0 0 0 0 0 0 0 0 0 0 0 0 1 2 6 9 11 10 10 9 8 6 4 2 1 1 0 0 0 0 0 0
0 0 0 0 0 0 0 0 0 0 0 0 0 0 0 0 0 0 0 0 0 0 0 0 0 2 5 8 9 10 10 10 9 7 5 3 2 1 0 0 0 1 1
0 0 0 0 0 0 0 0 0 0 0 0 0 0 0 0 0 0 0 0 0 0 0 0 0 0 1 3 5 7 9 11 12 11 8 5 4 2 1 1 0 0 0
1 0 0 0 0 0 0 0 0 0 0 0 0 0 0 0 0 0 0 0 0 0 0 0 0 0 0 0 1 3 7 11 14 13 10 7 5 3 2 2 1 0 0
1 0 0 0 0 0 0 0 0 0 0 0 0 0 0 0 0 0 0 0 0 0 0 0 0 0 0 0 0 1 3 8 11 11 9 7 5 3 2 2 1 0 0
1 0 0 1 2 1 0 0 0 0 0 0 0 0 0 1 1 1 0 0 1 1 0 1 1 1 0 0 0 0 1 4 6 6 5 4 4 3 2 1 1 0 0
0 0 1 2 3 2 1 0 0 0 0 0 1 1 1 2 2 2 1 1 2 1 1 2 2 2 1 1 1 2 3 3 2 2 1 2 3 3 2 1 1 0 1
1 0 1 3 3 2 1 0 1 1 1 1 1 2 2 2 3 3 3 3 3 2 2 3 3 3 3 2 2 3 5 4 2 0 0 1 2 2 2 2 2 1 1
2 2 2 3 4 4 3 3 4 3 2 2 2 1 1 1 2 3 3 3 3 3 3 3 3 3 3 3 2 2 4 3 1 0 0 0 1 1 2 2 2 1 1
5 5 5 5 7 8 8 7 6 4 3 2 1 1 1 1 2 3 3 3 3 3 3 3 3 3 3 3 2 1 1 1 0 0 0 0 0 0 1 1 1 0 0
9 9 9 9 10 12 11 9 6 4 3 2 1 1 2 2 2 2 2 2 2 2 2 2 3 3 3 2 2 1 0 0 0 0 0 0 0 0 0 0 0 0 0
14 14 14 13 13 13 12 9 6 4 3 2 1 2 2 2 1 1 1 1 2 2 2 2 2 2 2 1 1 1 0 0 0 0 0 0 0 0 0 0 0 0 0
17 18 19 17 15 14 12 10 7 6 4 2 1 1 1 1 1 1 1 2 2 2 2 2 2 1 1 0 0 0 0 0 0 0 0 0 0 0 0 0 0 0 0
17 18 19 18 16 15 13 11 10 8 5 2 0 0 0 1 2 3 3 3 4 4 4 3 2 1 0 0 0 0 0 0 0 0 0 0 0 0 0 0 0 0 0
18 17 16 16 16 15 13 12 12 11 7 3 1 1 1 2 3 3 3 4 4 5 4 2 1 0 0 0 0 0 0 0 0 0 0 0 0 0 0 0 0 0 0
23 20 17 17 16 15 13 13 15 14 10 5 3 3 3 3 4 3 3 3 4 4 4 2 1 1 1 1 1 0 0 0 0 0 0 0 0 0 0 0 0 0 0
29 24 20 18 17 15 14 15 17 16 12 8 6 6 5 6 5 3 2 3 3 3 3 3 2 2 2 2 2 1 0 0 0 0 0 0 0 0 0 0 0 0 0
32 30 25 21 19 16 15 15 16 16 14 10 9 8 8 8 7 4 3 3 3 3 3 2 3 3 3 3 3 2 1 1 0 0 0 0 0 0 0 0 0 0 0
34 33 30 26 22 19 16 13 13 15 15 12 10 11 10 10 8 6 4 3 4 3 3 3 3 2 3 3 3 3 3 2 1 0 0 0 0 0 0 0 0 0 0
35 34 32 30 26 21 15 10 9 13 15 13 12 12 11 10 8 6 4 4 4 4 3 3 2 2 2 2 2 3 3 3 2 1 0 0 0 0 0 0 0 0 0
36 34 32 31 27 20 12 6 7 12 15 14 12 11 10 8 6 5 4 5 5 4 3 2 1 1 1 1 1 3 3 3 3 2 1 0 0 0 0 0 0 0 0
Wind_Speed
4 3 2 2 2 2 2 2 2 2 2 2 2 2 2 3 4 4 3 11 12 12 12 13 13 12 12 12 12 11 11 11 10 10 10 10 10 10 9 9 9 8 8
4 4 3 3 3 3 3 3 3 3 2 2 2 2 2 3 3 4 4 7 13 12 12 13 13 13 13 13 13 13 12 12 11 11 11 10 10 10 10 10 9 9 8
5 4 3 3 3 3 3 2 2 2 2 2 2 2 2 3 4 4 4 4 5 10 13 13 13 13 14 14 13 13 13 12 12 11 11 11 11 10 11 10 10 10 9
5 4 3 3 3 3 2 2 2 2 1 1 1 2 2 2 4 4 4 4 4 5 9 14 13 13 14 14 14 14 14 13 12 12 12 11 11 11 11 11 11 10 10
5 4 3 3 3 2 2 3 2 2 2 1 2 2 2 2 3 4 4 5 5 5 4 8 12 13 14 15 15 15 14 14 13 13 13 12 12 11 11 11 11 11 10
5 4 3 3 3 2 2 2 2 2 2 2 1 1 2 2 2 2 4 4 5 6 5 5 5 8 14 14 14 14 14 14 14 14 14 13 13 12 12 12 12 11 11
5 4 3 3 3 3 3 3 2 2 1 1 1 1 2 2 2 2 3 3 4 5 4 5 4 3 4 11 12 13 14 14 14 14 13 13 13 12 12 12 12 11 11
5 5 4 3 3 3 3 3 2 2 1 2 2 1 2 3 3 2 2 2 3 3 4 6 5 5 4 3 6 12 13 13 14 13 13 12 12 11 12 12 12 12 11
5 4 5 4 3 3 3 3 3 3 2 1 2 3 2 3 2 3 2 1 2 2 3 3 5 5 5 4 4 8 11 11 12 12 12 11 11 10 10 10 11 11 11
4 4 4 5 4 3 3 3 4 3 3 2 1 2 3 3 2 2 3 2 2 2 3 3 4 4 4 4 4 6 9 10 11 11 10 10 9 9 10 10 11 11 11
3 4 4 4 4 3 3 3 3 3 3 3 2 2 1 1 2 2 2 3 2 2 2 2 2 2 4 4 3 5 8 9 8 8 8 8 8 9 9 9 10 11 11
2 4 4 4 4 3 4 4 3 3 3 3 3 2 2 2 2 3 3 2 2 2 1 1 2 2 2 3 4 6 6 6 6 6 6 7 7 8 8 8 9 9 10
3 4 4 4 3 4 4 3 3 3 3 3 3 3 3 3 3 3 2 2 2 2 1 1 1 2 2 2 2 6 6 6 6 5 5 5 5 5 5 6 6 6 7
4 4 4 4 4 4 4 3 3 3 2 3 3 3 2 2 2 3 3 2 1 1 1 2 1 1 1 2 2 4 3 6 5 5 4 4 4 4 4 4 4 4 5
4 5 5 4 4 4 4 3 2 3 2 2 2 2 2 2 2 2 2 3 3 2 2 2 1 1 2 2 3 3 3 5 6 5 4 4 4 4 4 4 4 3 4
4 4 4 5 4 4 4 4 3 2 3 3 2 3 2 2 2 1 2 2 3 3 2 2 2 1 2 2 3 2 3 6 6 5 5 4 4 3 3 3 3 3 3
5 5 5 5 4 4 4 4 4 3 4 3 3 3 4 3 2 1 1 1 2 2 2 2 1 1 1 2 2 1 2 2 2 5 5 4 4 3 3 3 3 3 3
5 5 5 5 5 4 4 4 4 4 4 4 4 4 4 3 3 2 2 2 2 2 3 3 1 1 2 3 3 2 2 2 2 4 5 5 4 4 3 3 3 3 3
4 4 5 5 4 4 4 4 4 4 4 4 4 4 4 3 3 3 3 2 2 2 2 2 2 1 1 2 1 1 1 1 2 3 4 4 4 4 4 3 3 4 4
5 5 5 5 5 4 4 4 4 3 3 4 4 4 4 4 4 3 3 3 2 2 2 2 2 1 1 1 2 2 1 1 1 2 2 2 3 4 4 4 4 4 4
5 5 4 4 4 4 4 4 4 4 3 3 3 3 4 5 5 4 3 3 3 2 2 2 2 2 2 2 2 2 2 1 1 1 1 2 2 2 2 4 5 5 5
4 4 4 5 5 4 5 7 5 3 3 4 3 3 3 4 4 5 5 6 5 4 4 3 3 4 4 4 3 3 3 2 2 2 2 2 2 3 2 2 4 6 6
4 4 5 5 5 5 6 7 7 4 4 4 3 3 2 2 3 2 3 4 4 5 6 5 5 5 5 5 5 4 4 3 3 3 3 2 2 3 3 3 6 7 6
4 5 5 5 4 4 6 6 7 4 3 3 3 4 3 3 3 3 2 2 2 3 4 4 5 5 5 5 5 5 5 3 1 0 3 2 2 2 2 2 6 7 7
4 4 4 4 4 4 6 7 6 3 2 3 3 3 3 3 4 4 3 2 2 2 2 2 3 2 3 4 5 3 3 2 2 2 2 2 2 1 1 1 3 7 7
3 3 3 3 4 3 4 7 7 3 3 2 2 2 3 4 4 5 4 3 3 3 1 0 0 0 0 1 4 4 5 4 2 2 2 2 1 2 1 1 1 2 3
Wind_Direction
170 173 175 174 185 182 181 187 203 213 225 232 229 223 199 185 182 182 191 194 195 195 194 194 195 198 199 198 198 198 198 198 198 198 200 200 199 198 198 200 200 201 201
167 168 174 180 191 192 190 189 201 197 205 208 222 219 193 191 185 186 194 199 203 201 201 200 201 204 205 205 204 204 204 205 203 204 206 205 205 203 203 204 207 208 208
168 166 169 182 193 192 187 182 191 179 189 198 214 223 211 200 191 197 195 197 206 207 206 208 210 210 210 210 210 208 208 208 207 207 209 210 210 210 209 210 211 212 213
172 164 172 192 190 179 168 170 173 168 197 204 217 238 229 206 203 198 196 199 201 208 213 214 216 215 214 215 215 212 210 210 211 212 213 212 213 214 212 214 216 215 214
172 167 177 193 182 174 177 188 172 170 186 208 228 235 238 227 212 203 198 201 200 203 206 217 218 217 219 219 217 215 213 214 215 218 217 216 216 215 214 215 219 220 219
172 165 178 191 173 165 178 180 174 173 177 193 238 269 262 249 225 204 207 205 204 206 205 209 216 222 223 222 219 219 217 216 217 219 220 220 220 218 216 218 219 223 225
174 171 177 178 170 172 182 178 166 167 184 153 84 341 326 296 250 228 214 202 205 207 202 208 210 215 226 225 224 223 221 220 219 217 218 221 223 221 219 217 219 222 224
182 181 173 177 176 168 174 180 166 157 197 157 141 116 336 333 313 262 228 202 201 201 212 216 209 210 216 214 221 224 226 226 224 221 219 220 222 222 220 221 222 223 223
191 188 179 176 176 171 181 189 177 168 186 208 169 155 168 232 290 309 281 239 203 204 220 220 212 210 212 210 214 225 226 226 225 224 221 220 219 218 220 222 225 225 224
191 186 177 176 177 177 184 196 183 174 168 193 214 203 187 175 184 297 315 296 253 231 226 227 218 206 205 204 205 211 222 225 226 227 223 219 218 220 222 224 228 228 226
195 188 181 178 182 186 191 193 181 181 179 184 189 197 210 199 181 186 273 300 306 266 228 216 203 198 197 193 195 206 220 217 213 218 220 220 219 221 223 225 230 232 230
202 202 188 183 187 189 193 193 191 187 194 194 192 186 184 189 197 187 219 255 272 276 244 205 194 199 192 190 201 196 201 199 196 205 216 220 220 219 220 224 230 235 237
203 210 196 188 189 196 196 188 187 198 197 196 202 204 201 207 188 179 189 231 257 278 294 243 211 193 192 183 199 188 188 177 181 191 202 206 212 214 215 217 223 232 236
204 201 195 193 195 193 197 187 190 205 198 204 217 210 210 225 199 185 183 180 230 288 293 263 270 196 182 180 186 176 173 168 173 182 190 196 196 201 210 215 221 227 228
202 199 196 195 199 196 192 179 188 201 194 202 211 204 206 226 214 201 182 171 173 209 250 248 236 219 186 175 179 170 163 163 168 174 183 193 195 195 198 202 205 210 213
201 193 196 193 191 193 191 185 190 196 197 212 210 211 219 222 219 208 189 181 173 178 216 232 226 228 203 181 170 170 172 165 173 178 182 186 186 187 191 193 195 193 182
191 191 196 193 192 195 191 189 202 197 205 218 221 216 226 212 208 219 194 180 183 168 196 240 224 198 177 184 171 173 170 174 176 178 180 181 182 187 190 191 193 187 176
195 195 191 190 199 204 201 196 214 214 212 220 225 222 228 216 210 212 199 203 199 189 179 212 217 191 200 195 185 178 186 187 189 188 184 184 185 188 188 189 190 191 192
193 193 187 188 194 197 198 205 211 211 216 221 221 218 221 213 226 223 210 208 207 201 176 178 205 195 194 179 163 180 184 200 208 200 194 196 195 191 189 191 188 188 189
191 191 192 192 194 196 198 204 201 205 216 223 222 219 216 212 220 218 212 209 197 193 183 176 189 191 190 178 157 183 206 222 221 200 200 197 200 204 204 199 194 189 188
192 192 192 194 192 191 202 200 201 201 205 218 227 225 222 223 217 207 205 200 192 195 188 188 196 189 197 182 199 191 196 194 231 197 189 211 200 211 216 214 208 201 194
191 188 196 196 197 206 204 196 188 197 200 210 223 230 235 229 225 218 214 204 194 192 197 196 205 208 215 205 188 182 173 170 232 215 179 225 191 213 221 213 211 200 196
194 195 204 202 207 214 205 200 194 187 201 212 217 224 235 230 209 217 219 210 214 211 197 192 206 215 211 203 184 189 192 188 209 201 161 220 210 223 221 215 204 198 194
203 201 202 203 208 217 207 203 194 192 202 215 217 213 214 220 211 198 190 204 230 237 222 209 211 221 217 202 192 194 192 184 205 191 153 195 214 221 216 210 206 202 200
207 207 200 197 202 217 203 193 176 176 204 227 229 219 210 214 221 196 181 205 237 268 254 207 206 216 214 196 177 152 153 153 212 238 191 176 201 200 209 225 213 202 203
207 204 206 200 199 204 195 188 181 177 200 230 240 233 222 221 215 191 185 192 218 243 209 139 133 305 270 166 173 181 180 178 179 218 206 169 173 145 235 257 213 200 208